Regional Weather Roundup
Issued by NWS

Home | Current Version | Previous Version | Text Only | Print | Product List | Glossary On
Versions: 1 2 3 4 5 6 7 8 9 10 11 12 13 14 15 16 17 18 19 20 21 22 23 24 25 26 27 28 29 30 31 32 33 34 35 36 37 38 39 40 41 42 43 44 45 46 47 48 49 50
000
ASUS46 KSEW 050810
RWRWA

WASHINGTON REGIONAL WEATHER ROUNDUP
NATIONAL WEATHER SERVICE SEATTLE WA
100 AM PDT SUN JUL 05 2015

NOTE:"FAIR" INDICATES FEW OR NO CLOUDS BELOW 12,000 FEET WITH NO
SIGNIFICANT WEATHER AND/OR OBSTRUCTIONS TO VISIBILITY.

WAZ505-507>509-050900-
SEATTLE, TACOMA, EVERETT, AND VICINITY

CITY           SKY/WX    TMP DP  RH WIND       PRES   REMARKS
EVERETT        CLEAR     67  51  56 CALM      29.81S
BOEING FIELD   CLEAR     73  49  42 CALM      29.78S
RENTON         CLEAR     69  48  47 CALM      29.78R
SEATAC AIRPORT CLEAR     74  46  36 N6        29.81R
JBLM-MCCHORD   CLEAR     65  50  59 CALM      29.79S
PUYALLUP       MOCLDY    61  50  67 CALM      29.81R HAZE
BREMERTON      CLEAR     61  46  59 CALM      29.83R
JBLM-FT LEWIS  CLEAR     65  46  49 SE3       29.79R
TACOMA NARROWS CLEAR     71  45  39 CALM      29.80R
$$

WAZ001-503-506-510-514-515-050900-
NORTH INTERIOR

CITY           SKY/WX    TMP DP  RH WIND       PRES   REMARKS
BELLINGHAM     CLEAR     60  52  74 CALM      29.80R
FRIDAY HARBOR  CLEAR     54  51  90 CALM      29.81S
EASTSOUND      CLEAR     61  54  77 CALM      29.79R
PORT ANGELES   CLEAR     59  54  83 CALM      29.80S
PORT TOWNSEND  FAIR      55  52  88 CALM      29.79S
NAS WHIDBEY    PTCLDY    59  52  77 NW3       29.83S
ARLINGTON      CLEAR     61  48  63 N5        29.81S
BURLINGTON     PTCLDY    59  52  77 CALM      29.80S
$$

WAZ020-022-039-040-504-511-512-050900-
SOUTHWEST INTERIOR

CITY           SKY/WX    TMP DP  RH WIND       PRES   REMARKS
SHELTON        CLEAR     65  54  67 W7        29.78S
OLYMPIA        CLEAR     66  55  67 S3        29.79S
CHEHALIS       FAIR      64  61  88 CALM      29.79S
KELSO          CLEAR     66  54  63 N3        29.83S
VANCOUVER      CLEAR     73  56  54 CALM      29.75S
SCAPPOOSE, OR  CLEAR     68  57  68 N5        29.75S
PORTLAND, OR   CLEAR     75  59  57 SW5       29.76S
$$

WAZ021-516-517-050900-
WASHINGTON COAST

CITY           SKY/WX    TMP DP  RH WIND       PRES   REMARKS
FORKS          CLEAR     53  51  93 CALM      29.80R FOG
HOQUIAM        CLOUDY    58  58 100 S3        29.81F FOG
ASTORIA, OR    CLOUDY    59  57  93 SW3       29.81F
$$

WAZ019-023-024-040-518-519-050900-
CASCADE MOUNTAINS AND COLUMBIA GORGE

CITY           SKY/WX    TMP DP  RH WIND       PRES   REMARKS
TROUTDALE, OR  PTCLDY    76  58  53 CALM      29.75R
THE DALLES, OR PTCLDY    86  50  28 W22G28    29.68S
$$

WAZ026-027-041>044-520-521-050900-
EAST SLOPES

CITY           SKY/WX    TMP DP  RH WIND       PRES   REMARKS
OMAK           CLEAR     79  29  16 N18G26    29.81S
WENATCHEE      CLEAR     85  29  13 W9        29.77R
ELLENSBURG     CLEAR     76  36  23 NW14G20   29.79R
YAKIMA         CLEAR     80  34  19 NW8       29.74R
$$

WAZ028-034-035-050900-
COLUMBIA BASIN

CITY           SKY/WX    TMP DP  RH WIND       PRES   REMARKS
EPHRATA        NOT AVBL
MOSES LAKE     CLEAR     81  37  20 N18       29.72R
PASCO          CLEAR     83  39  21 W5        29.65R
HERMISTON, OR  PTCLDY    81  49  32 N9        29.67R
$$

WAZ036>038-050900-
NORTHEAST WASHINGTON

CITY           SKY/WX    TMP DP  RH WIND       PRES   REMARKS
SPOKANE GEIGER PTCLDY    78  30  17 N9        29.77S
SPOKANE FELTS  CLEAR     80  37  21 N9        29.75R
FAIRCHILD AFB  CLEAR     77  27  15 NW8       29.78R
COEURDALENE,ID CLEAR     72  45  37 NE7       29.74S
DEER PARK      CLEAR     63  40  42 NE3       29.77S
$$

WAZ029>033-050900-
SOUTHEAST WASHINGTON

CITY           SKY/WX    TMP DP  RH WIND       PRES   REMARKS
PULLMAN        PTCLDY    63  46  54 CALM      29.79R
LEWISTON, ID   PTCLDY    81  41  24 S6        29.69R
WALLA WALLA    CLEAR     83  47  28 S12       29.71R
PENDLETON, OR  PTCLDY    82  44  26 W12       29.73R
$$


USA.gov is the U.S. government's official web portal to all federal, state and local government web resources and services.